Showing default

SES 19, 55971

Orbit data source: Space-Track

SES 19, 55971 is a payload satellite owned by SES (LU) in GEO that was launched on Fri, 17 Mar 2023 UTC via an FALCON 9 launch vehicle from the Air Force Eastern Test Range (AFETR). Payload-class satellites include a variety of spacecraft equipped with specific instruments for various scientific and technological missions. These include communications satellites like Starlink; space stations such as the ISS; scientific satellites like the Hubble; Earth observation satellites from companies like Planet Labs, Umbra, and HawkEye 360; GPS; miniature CubeSats for education and research; and military/defense satellites.

Loading next visibility...
Identifier
55971, 2023-038B
Orbit
GEO
Country
Flag of LULU / SES
Related business
Manufacturer
NGIS SSG
Mission
Operational Commercial Communications
Bus & Motor
GEOSTAR-3, BT-4?
Mass
3,650 kg wet, 1,280 kg dry
Launch date (UTC)
2023-03-17 (3 years ago)
Launch vehicle
FALCON 9
Launch site
Air Force Eastern Test Range (AFETR)
Object type
Payload
Rocket body
Debris
Shape & HBR
Box + 2 Pan, 11.5 m
Radar Cross Section
29.373 m², Large (>1 m²)

Expand to show TLE details & history
Last TLE update: 2 days ago

TLE from 2 days ago
0 SES 19
1 55971U 23038B   26171.35044763  .00000083  00000-0  00000+0 0  9992
2 55971   0.0305 294.0186 0001709 159.7518 166.0491  1.00270933 12128
Epoch: 2026-06-20T08:24Z
TLE epoch observation values (Epoch: 2026-06-20T08:24:38.675Z)
Latitude
-0.03167°
Longitude
-134.89098°
Altitude
35,793.352 km
Speed
3.074 km/s
True Right ascension
17h 19m 20s
True Declination
0° 01' 54"
Sunlit
Object was in daylight at epoch
Visualization orbit readout
Latitude
Unknown
Longitude
Unknown
Altitude
Unknown
Speed
Unknown
Apparent Right ascension
Unknown
Apparent Declination
Unknown
Sunlit
N/A
Visualization observer readout
Local Sidereal Time
21:36:56
Azimuth
Unknown
Elevation
Unknown
Doppler factor
Unknown
Orbital elements
Apogee altitude
35,795.11 km
Perigee altitude
35,780.698 km
Semi-major axis
42,166.041 km
Eccentricity
0.00017
Inclination
0.0305°
RAAN
294.0186°
Arg. of periapsis
159.7518°
True anomaly
166.05382°
Mean anomaly
166.0491°
Eccentric anomaly
166.05146°
Mean motion
0.25067 °/min
Orbital period
1,436.16 mins
BSTAR
0
Loading maneuver chart data...
Computing Atmospheric mass density...
Loading historical data...
Loading historical data...
Loading historical data...
Loading historical data...
Loading historical data...
Loading historical data...
Loading historical data...
Other satellites on launch #38 in the year 2023 (2023-03-17 UTC)

Documentation

Showing up to 5 results
|